Printer-friendly version

IAU Minor Planet Center

Minor Planet Center

MPEC 2001-B34: 2001 BK16

The following Minor Planet Electronic Circular may be linked-to from your own Web pages, but must not otherwise be redistributed electronically.


Read MPEC 2001-B33 Read MPEC 2001-B35


M.P.E.C. 2001-B34                                Issued 2001 Jan. 24, 00:05 UT

     The Minor Planet Electronic Circulars contain information on unusual
         minor planets and routine data on comets.  They are published
   on behalf of Commission 20 of the International Astronomical Union by the
          Minor Planet Center, Smithsonian Astrophysical Observatory,
                          Cambridge, MA 02138, U.S.A.

             Prepared using the Tamkin Foundation Computer Network

                              MPC@CFA.HARVARD.EDU
          URL http://cfa-www.harvard.edu/iau/mpc.html  ISSN 1523-6714

                                   2001 BK16

Observations:
     K01B16K* C2001 01 19.08264 02 39 37.15 +04 16 18.5          18.7        704
     K01B16K  C2001 01 19.09805 02 39 40.69 +04 17 27.2          19.6        704
     K01B16K  C2001 01 19.11308 02 39 44.23 +04 18 35.4          18.8        704
     K01B16K  C2001 01 19.12844 02 39 47.74 +04 19 44.2          19.8        704
     K01B16K  C2001 01 19.14414 02 39 51.31 +04 20 54.8          19.0        704
     K01B16K  C2001 01 20.07350 02 43 27.22 +05 28 59.3          18.8        704
     K01B16K  C2001 01 20.08845 02 43 30.53 +05 30 03.3          19.3        704
     K01B16K  C2001 01 20.11843 02 43 37.29 +05 32 13.1          19.1        704
     K01B16K  C2001 01 20.13339 02 43 40.66 +05 33 16.5          19.2        704
     K01B16K  C2001 01 21.07111 02 47 13.11 +06 39 16.2          18.5        704
     K01B16K  C2001 01 21.07402 02 47 13.62 +06 39 27.6          18.6        704
     K01B16K  C2001 01 21.08819 02 47 16.78 +06 40 27.4          18.6        704
     K01B16K  C2001 01 21.08892 02 47 16.91 +06 40 29.4          19.0        704
     K01B16K  C2001 01 21.10381 02 47 20.13 +06 41 31.3          19.4        704
     K01B16K  C2001 01 21.10432 02 47 20.25 +06 41 33.0          18.4        704
     K01B16K  C2001 01 21.11872 02 47 23.54 +06 42 32.7          19.3        704
     K01B16K  C2001 01 21.11941 02 47 23.54 +06 42 36.3          18.6        704
     K01B16K  C2001 01 21.13363 02 47 26.66 +06 43 36.2          19.4        704
     K01B16K  C2001 01 21.13487 02 47 26.94 +06 43 39.3          19.1        704
     K01B16K  C2001 01 21.79255 02 49 52.79 +07 28 17.8                      587
     K01B16K  C2001 01 21.79632 02 49 53.55 +07 28 31.4          18.0 R      587
     K01B16K  C2001 01 22.80428 02 53 32.37 +08 34 38.8          18.3 R      046
     K01B16K  C2001 01 22.80647 02 53 32.73 +08 34 47.3                      046

Observer details:
046 Klet.  Observers M. Tichy, M. Kocer.  0.57-m f/5.2 reflector + CCD.
587 Sormano.  Observers F. Manca, G. Ventre.  0.5-m reflector + CCD.
704 Lincoln Laboratory ETS, New Mexico.  Observers M. Blythe, F. Shelly,
    M. Bezpalko, R. Huber, L. Manguso, S. Adams.  Measurers J. Stuart,
    R. Sayer, J. B. Evans, H. Viggh.  1.0-m f/2.15 reflector + CCD.

Orbital elements:
2001 BK16                                                            PHA 0.044
Epoch 2001 Jan. 11.0 TT = JDT 2451920.5                 Spahr
M  11.74375              (2000.0)            P               Q
n   0.20840532     Peri.  257.74440     +0.83810380     +0.04167816
a   2.8174973      Node    97.88462     +0.12331858     +0.95679064
e   0.7534610      Incl.   33.30580     -0.53138927     +0.28777526
P   4.73           H   17.1           G   0.15
From 23 observations 2001 Jan. 19-22.

Ephemeris:
2001 BK16                a,e,i = 2.82, 0.75, 33                  q = 0.6946
Date    TT    R. A. (2000) Decl.     Delta      r     Elong.  Phase     V
2001 01 11    02 03.97   -07 31.0    0.541    1.163    95.0    57.4    18.2
2001 01 21    02 46.95   +06 34.4    0.662    1.280   100.2    49.2    18.6
2001 01 31    03 20.49   +16 00.6    0.823    1.397   100.7    43.9    19.1
2001 02 10    03 48.78   +22 16.5    1.007    1.511    98.6    40.2    19.6
2001 02 20    04 14.00   +26 32.2    1.205    1.623    94.9    37.4    20.1
2001 03 02    04 37.41   +29 31.1    1.413    1.733    90.5    34.9    20.5
2001 03 12    04 59.65   +31 38.3    1.625    1.839    85.6    32.6    20.9
2001 03 22    05 21.09   +33 09.1    1.841    1.943    80.5    30.4    21.2
2001 04 01    05 41.96   +34 13.1    2.056    2.043    75.2    28.2    21.5
2001 04 11    06 02.33   +34 56.4    2.270    2.141    69.8    26.1    21.7

Timothy B. Spahr             (C) Copyright 2001 MPC           M.P.E.C. 2001-B34

Read MPEC 2001-B33 Read MPEC 2001-B35


Our Web policy. Index to the CBAT/MPC/ICQ pages.


Valid HTML 4.01!